DW6099 Weather Reports


Display with metric or nautical units.
time (UTC)temp
F
wind
direction
speed
MPH
gust
MPH
rain 1hr
in
rain 24hr
in
rain mn
in
humidity
%
barometer
mb
20260510000052 74 15 4.0 6.0 0.00 0.00 0.00 49 1002.4
20260509234551 74 15 0.0 6.0 0.00 0.00 0.00 46 1002.4
20260509233048 74 15 3.0 7.0 0.00 0.00 0.00 51 1002.4
20260509231547 73 13 4.0 8.0 0.00 0.00 0.00 53 1002.4
20260509230047 73 13 4.0 8.0 0.00 0.00 0.00 50 1002.4
20260509224544 73 13 5.0 8.0 0.00 0.00 0.00 50 1002.4
20260509223042 73 13 4.0 8.0 0.00 0.00 0.00 55 1002.4
20260509221541 72 13 3.0 8.0 0.00 0.00 0.00 54 1002.4
20260509220040 72 9 5.0 7.0 0.00 0.00 0.00 54 1002.4
20260509214536 71 19 6.0 8.0 0.00 0.00 0.00 59 1002.4
20260509213034 70 15 4.0 8.0 0.00 0.00 0.00 62 1002.4
20260509211533 71 15 4.0 7.0 0.00 0.00 0.00 62 1002.4
20260509210035 69 12 5.0 10.0 0.00 0.00 0.00 59 1002.4
20260509204531 70 10 6.0 9.0 0.00 0.00 0.00 64 1002.4
20260509203038 69 19 6.0 10.0 0.00 0.00 0.00 62 1002.4
20260509201527 69 17 4.0 8.0 0.00 0.00 0.00 68 1002.4
20260509200024 68 13 4.0 8.0 0.00 0.00 0.00 65 1002.4
20260509194522 67 5 4.0 8.0 0.00 0.00 0.00 68 1002.4
20260509193022 67 13 6.0 9.0 0.00 0.00 0.00 69 1002.4
20260509191522 66 20 7.0 10.0 0.00 0.00 0.00 68 1002.4
20260509190024 67 355 6.0 11.0 0.00 0.00 0.00 69 1002.4
20260509184515 65 350 3.0 8.0 0.00 0.00 0.00 72 1002.4
20260509183014 65 10 7.0 10.0 0.00 0.00 0.00 73 1002.4
20260509181511 64 15 5.0 9.0 0.00 0.00 0.00 71 1002.4
20260509180010 62 15 4.0 8.0 0.00 0.00 0.00 75 1002.4
20260509174507 62 15 2.0 7.0 0.00 0.00 0.00 75 1002.4
20260509173005 61 15 3.0 7.0 0.00 0.00 0.00 76 1002.4
20260509171503 60 19 4.0 7.0 0.00 0.00 0.00 78 1002.4
20260509170100 59 14 5.0 7.0 0.00 0.00 0.00 79 1002.4
20260509164556 58 14 3.0 9.0 0.00 0.00 0.00 82 1002.4
20260509163054 58 19 5.0 8.0 0.00 0.00 0.00 83 1002.4
20260509161551 57 17 5.0 8.0 0.00 0.00 0.00 84 1002.4
20260509160049 56 5 5.0 8.0 0.00 0.00 0.00 86 1002.4
20260509154547 56 5 2.0 6.0 0.00 0.00 0.00 87 1002.4
20260509153058 55 5 4.0 7.0 0.00 0.00 0.00 88 1002.4
20260509151548 54 11 2.0 7.0 0.00 0.00 0.00 92 1002.4
20260509150038 51 16 0.0 0.0 0.00 0.00 0.00 96 1002.4
20260509144536 49 16 0.0 0.0 0.00 0.00 0.00 96 1002.4
20260509143036 47 16 0.0 0.0 0.00 0.00 0.00 95 1002.4
20260509141536 46 16 0.0 0.0 0.00 0.00 0.00 95 1002.4
20260509140043 45 16 0.0 0.0 0.00 0.00 0.00 94 1002.4
20260509134539 44 16 0.0 0.0 0.00 0.00 0.00 94 1002.4
20260509133034 44 16 0.0 0.0 0.00 0.00 0.00 93 1002.4
20260509131538 43 16 0.0 0.0 0.00 0.00 0.00 93 1002.4
20260509130033 43 16 0.0 0.0 0.00 0.00 0.00 92 1002.4
20260509124531 44 16 0.0 0.0 0.00 0.00 0.00 92 1002.4
20260509123030 44 16 0.0 0.0 0.00 0.00 0.00 92 1002.4
20260509121531 44 16 0.0 0.0 0.00 0.00 0.00 91 1002.4
20260509120035 45 16 0.0 0.0 0.00 0.00 0.00 93 1002.4
20260509114529 45 16 0.0 0.0 0.00 0.00 0.00 92 1002.4
20260509113028 45 16 0.0 0.0 0.00 0.00 0.00 93 1002.4
20260509111525 45 16 0.0 0.0 0.00 0.00 0.00 92 1002.4
20260509110026 45 16 0.0 0.0 0.00 0.00 0.00 92 1002.4
20260509104525 45 16 0.0 0.0 0.00 0.00 0.00 91 1002.4
20260509103021 46 16 0.0 0.0 0.00 0.00 0.00 91 1002.4
20260509101519 46 16 0.0 0.0 0.00 0.00 0.00 91 1002.4
20260509100017 47 16 0.0 0.0 0.00 0.00 0.00 91 1002.4
20260509094515 47 16 0.0 0.0 0.00 0.00 0.00 91 1002.4
20260509093016 47 16 0.0 0.0 0.00 0.00 0.00 91 1002.4
20260509091513 47 16 0.0 0.0 0.00 0.00 0.00 90 1002.4
20260509090012 48 16 0.0 0.0 0.00 0.00 0.00 91 1002.4
20260509084512 48 16 0.0 0.0 0.00 0.00 0.00 91 1002.4
20260509083008 49 16 0.0 0.0 0.00 0.00 0.00 90 1002.4
20260509081511 49 16 0.0 0.0 0.00 0.00 0.00 89 1002.4
20260509080005 49 16 0.0 0.0 0.00 0.00 0.00 89 1002.4
20260509074503 50 16 0.0 0.0 0.00 0.00 0.00 89 1002.4
20260509073006 50 16 0.0 0.0 0.00 0.00 0.00 88 1002.4
20260509071602 51 16 0.0 0.0 0.00 0.00 0.00 87 1002.4
20260509064557 52 16 0.0 0.0 0.00 0.00 0.00 86 1002.4
20260509063101 53 16 0.0 0.0 0.00 0.00 0.00 84 1002.4
20260509061601 53 16 0.0 0.0 0.00 0.00 0.00 84 1002.4
20260509060104 54 16 0.0 0.0 0.00 0.00 0.00 82 1002.4
20260509054611 55 16 0.0 0.0 0.00 0.00 0.00 81 1002.4
20260509053058 56 16 0.0 0.0 0.00 0.00 0.00 79 1002.4
20260509051554 58 16 0.0 0.0 0.00 0.00 0.00 75 1002.4
20260509050057 59 16 0.0 0.0 0.00 0.00 0.00 75 1002.4
20260509044554 59 16 0.0 0.0 0.00 0.00 0.00 74 1002.4
20260509043054 60 16 0.0 0.0 0.00 0.00 0.00 73 1002.4
20260509041555 60 16 0.0 0.0 0.00 0.00 0.00 72 1002.4
20260509040122 61 16 0.0 0.0 0.00 0.00 0.00 71 1002.4
20260509034557 62 16 0.0 0.0 0.00 0.00 0.00 71 1002.4
20260509033053 62 16 0.0 0.0 0.00 0.00 0.00 69 1002.4
20260509031553 63 16 0.0 0.0 0.00 0.00 0.00 68 1002.4
20260509030051 63 16 0.0 0.0 0.00 0.00 0.00 68 1002.4
20260509024550 64 16 0.0 0.0 0.00 0.00 0.00 68 1002.4
20260509023050 64 16 0.0 0.0 0.00 0.00 0.00 68 1002.4
20260509021550 64 16 0.0 0.0 0.00 0.00 0.00 68 1002.4
20260509020049 65 16 1.0 4.0 0.00 0.00 0.00 67 1002.4
20260509014547 65 17 3.0 5.0 0.00 0.00 0.00 63 1002.4
20260509013050 66 14 3.0 5.0 0.00 0.00 0.00 64 1002.4
20260509011557 67 18 2.0 5.0 0.00 0.00 0.00 62 1002.4
20260509010049 66 19 1.0 4.0 0.00 0.00 0.00 61 1002.4
20260509004603 66 19 0.0 5.0 0.00 0.00 0.00 62 1002.4
20260509003045 66 5 5.0 7.0 0.00 0.00 0.00 62 1002.4
20260509001545 66 16 1.0 6.0 0.00 0.00 0.00 62 1002.4